• In Hungary
  • List of Countries
  • For 7 days
  • Water Temperature
  • Satellite Maps
  • Weather Map
  • News
  • Weather Widgets
  • user-avatar
    Login

    Hourly Weather San Lorenzo

    Today, 17 October, Tuesday

    Time Temperature Precipitation Wind Pressure Humidity
    00:00 +28°C° 0 mm 3 mps 745 mmHg 59%
    01:00 +28°C° 0 mm 2 mps 745 mmHg 60%
    02:00 +27°C° 0 mm 2 mps 745 mmHg 61%
    03:00 +27°C° 0 mm 3 mps 745 mmHg 62%
    04:00 +27°C° 0 mm 3 mps 745 mmHg 62%
    05:00 +27°C° 0 mm 3 mps 745 mmHg 62%
    06:00 +28°C° 0 mm 3 mps 745 mmHg 60%
    07:00 +29°C° 0 mm 4 mps 745 mmHg 57%
    08:00 +32°C° 0 mm 4 mps 746 mmHg 54%
    09:00 +34°C° 0 mm 5 mps 746 mmHg 48%
    10:00 +37°C° 0 mm 5 mps 746 mmHg 42%
    11:00 +40°C° 0 mm 5 mps 745 mmHg 36%
    12:00 +41°C° 0 mm 5 mps 745 mmHg 32%
    13:00 +43°C° 0 mm 4 mps 744 mmHg 28%
    14:00 +44°C° 0 mm 4 mps 743 mmHg 24%
    15:00 +42°C° 0 mm 4 mps 743 mmHg 29%
    16:00 +38°C° 0 mm 3 mps 743 mmHg 34%
    17:00 +36°C° 0 mm 2 mps 743 mmHg 40%
    18:00 +36°C° 0 mm 3 mps 743 mmHg 39%
    19:00 +35°C° 0 mm 3 mps 743 mmHg 39%
    20:00 +35°C° 0 mm 4 mps 743 mmHg 38%
    21:00 +34°C° 0 mm 4 mps 743 mmHg 42%
    22:00 +33°C° 0 mm 4 mps 744 mmHg 45%
    23:00 +33°C° 0 mm 4 mps 744 mmHg 49%

    Tomorrow, 18 October, Wednesday

    Time Temperature Precipitation Wind Pressure Humidity
    00:00 +32°C° 0 mm 4 mps 743 mmHg 51%
    01:00 +31°C° 0 mm 3 mps 743 mmHg 53%
    02:00 +30°C° 0 mm 3 mps 743 mmHg 55%
    03:00 +30°C° 0 mm 4 mps 743 mmHg 55%
    04:00 +30°C° 0 mm 4 mps 743 mmHg 55%
    05:00 +30°C° 0 mm 4 mps 743 mmHg 54%
    06:00 +32°C° 0 mm 5 mps 743 mmHg 51%
    07:00 +34°C° 0 mm 5 mps 743 mmHg 48%
    08:00 +35°C° 0 mm 6 mps 744 mmHg 45%
    09:00 +38°C° 0 mm 6 mps 743 mmHg 40%
    10:00 +40°C° 0 mm 6 mps 743 mmHg 35%
    11:00 +42°C° 0 mm 6 mps 743 mmHg 30%
    12:00 +43°C° 0 mm 5 mps 742 mmHg 27%
    13:00 +45°C° 0 mm 5 mps 741 mmHg 23%
    14:00 +47°C° 0 mm 4 mps 740 mmHg 20%
    15:00 +43°C° 0 mm 3 mps 739 mmHg 24%
    16:00 +40°C° 0 mm 3 mps 739 mmHg 28%
    17:00 +38°C° 0 mm 2 mps 739 mmHg 32%
    18:00 +37°C° 0 mm 3 mps 739 mmHg 31%
    19:00 +37°C° 0 mm 3 mps 740 mmHg 30%
    20:00 +36°C° 0 mm 3 mps 740 mmHg 29%
    21:00 +36°C° 0 mm 4 mps 740 mmHg 30%
    22:00 +35°C° 0 mm 4 mps 740 mmHg 32%
    23:00 +35°C° 0 mm 4 mps 741 mmHg 33%

    Day after tomorrow, 19 October, Thursday

    Time Temperature Precipitation Wind Pressure Humidity
    00:00 +34°C° 0 mm 4 mps 740 mmHg 34%
    01:00 +34°C° 0 mm 4 mps 740 mmHg 35%
    02:00 +33°C° 0 mm 4 mps 739 mmHg 36%
    03:00 +30°C° 0.8 mm 4 mps 741 mmHg 47%
    04:00 +28°C° 0.8 mm 4 mps 742 mmHg 58%
    05:00 +26°C° 0.8 mm 4 mps 743 mmHg 69%
    06:00 +26°C° 2.2 mm 4 mps 744 mmHg 75%
    07:00 +26°C° 2.2 mm 4 mps 745 mmHg 82%
    08:00 +25°C° 2.2 mm 4 mps 747 mmHg 88%
    09:00 +26°C° 0.3 mm 4 mps 747 mmHg 85%
    10:00 +27°C° 0.3 mm 5 mps 747 mmHg 83%
    11:00 +27°C° 0.3 mm 5 mps 747 mmHg 80%
    12:00 +28°C° 0.1 mm 5 mps 746 mmHg 76%
    13:00 +29°C° 0.1 mm 4 mps 746 mmHg 71%
    14:00 +30°C° 0.1 mm 4 mps 745 mmHg 67%
    15:00 +29°C° 0.4 mm 4 mps 744 mmHg 70%
    16:00 +28°C° 0.4 mm 3 mps 744 mmHg 74%
    17:00 +27°C° 0.4 mm 3 mps 744 mmHg 78%
    18:00 +26°C° 0.4 mm 2 mps 744 mmHg 80%
    19:00 +26°C° 0.4 mm 2 mps 744 mmHg 83%
    20:00 +25°C° 0.4 mm 2 mps 745 mmHg 85%
    21:00 +25°C° 0.1 mm 2 mps 744 mmHg 87%
    22:00 +24°C° 0.1 mm 1 mps 744 mmHg 89%
    23:00 +24°C° 0.1 mm 1 mps 744 mmHg 91%

    20 October, Friday

    Time Temperature Precipitation Wind Pressure Humidity
    00:00 +24°C° 0.3 mm 1 mps 744 mmHg 92%
    01:00 +24°C° 0.3 mm 1 mps 744 mmHg 92%
    02:00 +23°C° 0.3 mm 1 mps 743 mmHg 93%
    03:00 +23°C° 0.3 mm 1 mps 743 mmHg 93%
    04:00 +23°C° 0.3 mm 2 mps 743 mmHg 93%
    05:00 +23°C° 0.3 mm 2 mps 743 mmHg 93%
    06:00 +24°C° 1.1 mm 2 mps 743 mmHg 92%
    07:00 +24°C° 1.1 mm 1 mps 744 mmHg 91%
    08:00 +25°C° 1.1 mm 1 mps 744 mmHg 90%
    09:00 +26°C° 0.6 mm 2 mps 743 mmHg 84%
    10:00 +28°C° 0.6 mm 2 mps 743 mmHg 78%
    11:00 +30°C° 0.6 mm 3 mps 743 mmHg 71%
    12:00 +29°C° 0.2 mm 3 mps 742 mmHg 73%
    13:00 +29°C° 0.2 mm 2 mps 741 mmHg 74%
    14:00 +29°C° 0.2 mm 2 mps 740 mmHg 75%
    15:00 +29°C° 0.6 mm 2 mps 740 mmHg 75%
    16:00 +30°C° 0.6 mm 1 mps 739 mmHg 75%
    17:00 +30°C° 0.6 mm 1 mps 739 mmHg 75%
    18:00 +28°C° 1.5 mm 1 mps 739 mmHg 80%
    19:00 +27°C° 1.5 mm 1 mps 739 mmHg 86%
    20:00 +26°C° 1.5 mm 1 mps 740 mmHg 91%
    21:00 +25°C° 4.3 mm 1 mps 740 mmHg 93%
    22:00 +25°C° 4.3 mm 1 mps 740 mmHg 95%
    23:00 +24°C° 4.3 mm 2 mps 740 mmHg 97%

    21 October, Saturday

    Time Temperature Precipitation Wind Pressure Humidity
    00:00 +24°C° 3.6 mm 1 mps 740 mmHg 97%
    01:00 +24°C° 3.6 mm 1 mps 740 mmHg 97%
    02:00 +24°C° 3.6 mm 1 mps 740 mmHg 97%
    03:00 +24°C° 3.8 mm 1 mps 740 mmHg 97%
    04:00 +24°C° 3.8 mm 1 mps 741 mmHg 97%
    05:00 +24°C° 3.8 mm 1 mps 741 mmHg 97%
    06:00 +24°C° 1.5 mm 1 mps 742 mmHg 96%
    07:00 +25°C° 1.5 mm 1 mps 743 mmHg 95%
    08:00 +25°C° 1.5 mm 1 mps 743 mmHg 93%
    09:00 +27°C° 0 mm 1 mps 743 mmHg 87%
    10:00 +28°C° 0 mm 1 mps 744 mmHg 81%
    11:00 +29°C° 0 mm 2 mps 744 mmHg 75%
    12:00 +30°C° 0 mm 2 mps 743 mmHg 72%
    13:00 +31°C° 0 mm 2 mps 743 mmHg 69%
    14:00 +31°C° 0 mm 2 mps 743 mmHg 66%
    15:00 +30°C° 0.5 mm 3 mps 742 mmHg 70%
    16:00 +29°C° 0.5 mm 4 mps 742 mmHg 74%
    17:00 +29°C° 0.5 mm 5 mps 742 mmHg 77%
    18:00 +27°C° 0.2 mm 4 mps 743 mmHg 80%
    19:00 +26°C° 0.2 mm 4 mps 744 mmHg 84%
    20:00 +25°C° 0.2 mm 3 mps 745 mmHg 87%
    21:00 +23°C° 0 mm 4 mps 745 mmHg 86%
    22:00 +23°C° 0 mm 5 mps 746 mmHg 85%
    23:00 +22°C° 0 mm 5 mps 747 mmHg 83%

    22 October, Sunday

    Time Temperature Precipitation Wind Pressure Humidity
    00:00 +22°C° 0 mm 5 mps 747 mmHg 83%
    01:00 +21°C° 0 mm 5 mps 747 mmHg 83%
    02:00 +21°C° 0 mm 6 mps 747 mmHg 82%
    03:00 +20°C° 0 mm 6 mps 748 mmHg 81%
    04:00 +20°C° 0 mm 6 mps 748 mmHg 79%
    05:00 +19°C° 0 mm 6 mps 749 mmHg 78%
    06:00 +19°C° 0 mm 6 mps 750 mmHg 77%
    07:00 +19°C° 0 mm 5 mps 750 mmHg 76%
    08:00 +17°C° 0 mm 5 mps 751 mmHg 76%
    09:00 +20°C° 0 mm 5 mps 751 mmHg 69%
    10:00 +21°C° 0 mm 5 mps 751 mmHg 62%
    11:00 +22°C° 0 mm 5 mps 752 mmHg 55%
    12:00 +23°C° 0 mm 5 mps 751 mmHg 52%
    13:00 +23°C° 0 mm 5 mps 751 mmHg 49%
    14:00 +25°C° 0 mm 5 mps 750 mmHg 46%
    15:00 +23°C° 0 mm 4 mps 750 mmHg 51%
    16:00 +22°C° 0 mm 4 mps 750 mmHg 55%
    17:00 +21°C° 0 mm 3 mps 750 mmHg 59%
    18:00 +20°C° 0 mm 3 mps 750 mmHg 62%
    19:00 +18°C° 0 mm 2 mps 751 mmHg 64%
    20:00 +16°C° 0 mm 2 mps 751 mmHg 67%
    21:00 +16°C° 0 mm 2 mps 751 mmHg 68%
    22:00 +15°C° 0 mm 2 mps 751 mmHg 68%
    23:00 +13°C° 0 mm 3 mps 751 mmHg 68%
    Show more